Location: Hannover
(52.3723°N, 9.7339°E)
Time: 10:05:21
(UTC+01:00)

ISS - Pass Details

Date: 09 January 2018
Orbit: 402 x 407 km, 51.6° (Epoch: 21 January)

Event Time Altitude Azimuth Distance (km) Brightness Sun altitude
Exits shadow 05:48:30 43° 112° (ESE) 586 -2.7 -23.3°
Drops below altitude 10° 05:50:50 10° 102° (ESE) 1,468 0.1 -22.9°
Sets 05:52:56 0° 101° (E) 2,329 1.5 -22.6°
